Other Surface Observations
Issued by NWS Charleston, SC

Home | Current Version | Previous Version | Text Only | Print | Product List | Glossary On
Versions: 1 2 3 4 5 6 7 8 9 10 11 12 13 14 15 16 17 18 19 20 21 22 23 24 25 26 27 28 29 30 31 32 33 34 35 36 37 38 39 40 41 42 43 44 45 46 47 48 49 50
000
SXUS52 KCHS 221225
OSOCHS

MARINE OBSERVATIONS
NATIONAL WEATHER SERVICE CHARLESTON SC
800 AM EDT WED OCT 22 2014

...DOWNTOWN CHARLESTON AND HARBOR...

CITY           SKY/WX    TMP DP  RH WIND       PRES   REMARKS
WATERFRONT PRK NOT AVBL
FORT JOHNSON   NOT AVBL

...LAKE MOULTRIE...

CITY           SKY/WX    TMP DP  RH WIND       PRES   REMARKS
PINOPOLIS      NOT AVBL

...LAKE AND SUPPLEMENTAL COASTAL OBSERVATIONS...

STATION/POSITION TIME  TEMP    WIND        PRES    WAVE   SWELL
                       AIR SEA DIR/SP/G            HT/PER HT/PER/DIR
                 (UTC) (F)     (DEG/KT/KT) (MB)    (FT/S) (FT/S/D)
FORT PULASKI     1200   59     360/ 10/ 13 1016.9R
SAPELO ISLAND    NOT AVBL
UPR LAKE MARION  NOT AVBL
WINYAH BAY       1200   53     340/  6     1015.0S
LAKE MURRAY      1100   49     340/  1/  7 1016.6R
ACE BASIN NERRS  1200   53     360/  3     1016.0S


...C-MAN AND BUOY OBSERVATIONS...

STATION/POSITION TIME  TEMP    WIND        PRES    WAVE   SWELL
                       AIR SEA DIR/SP/G            HT/PER HT/PER/DIR
                 (UTC) (F)     (DEG/KT/KT) (MB)    (FT/S) (FT/S/D)
BUOY 41004       1200   64 79  350/ 19/ 23 1014.2R   5/ 6   2/10
BUOY 41008       1200   67 76   20/ 17/ 21 1015.0R   3/ 5   2/ 90/ 9
FOLLY BEACH CMAN 1200   58     360/ 15/ 19 1016.8R
CAPERS NS BUOY   1100   58     360/ 17/ 21   N/A
FRIPP NS BUOY    NOT AVBL
5E ST. MARYS GA  1200      78                N/A     3/ 4
FRYING PAN BUOY  1200   60 75  340/ 19/ 21 1013.9R   5/ 6
BUOY 41025       1200   62     300/ 21/ 25 1009.9R   4/ 4   2/150/10
CAPE LOOKOUT NC  1200   57     330/ 16/ 19 1012.3R
BUOY 41002       1120   77 79  280/ 17/ 21 1011.5R   5/ 6   2/100/ 9
BUOY 41010       1200   77 80  220/ 10/ 10 1013.7R   2/ 8   2/ 70/ 8
BUOY 41012       NOT AVBL
ST AUGUSTINE FL  1200   63     310/  7/  9 1015.8R


$$



USA.gov is the U.S. government's official web portal to all federal, state and local government web resources and services.